Home > Weather > Recife > Past weeks

Flag for Brazil Weather for the Past 2 Weeks in Recife, Pernambuco, Brazil

Now
77 °F

Scattered showers. Passing clouds.


Feels Like: 78 °F
Forecast: 78 / 84 °F
Wind: 7 mph from Southwest

Location: Recife Aeroporto

Current Time: May 3, 2016 at 10:58:17 PM

Latest Report: May 3, 2016 at 10:00 PM


Visibility: 5 mi

Pressure: 29.98 "Hg

Humidity: 89%

Dew Point: 73 °F

Location of RecifeLocation

Historic Weather in Recife — Graph

°F

Recife Temperature Yesterday

Maximum temperature yesterday: 86 °F (at 11:00 AM)
Minimum temperature yesterday: 75 °F (at 2:00 AM)
Average temperature yesterday: 81 °F

High & Low Weather Summary for the Past Weeks

 TemperatureHumidityPressure
High88 °F (Apr 21, 12:00 PM)100% (May 1, 5:00 PM)29.98 "Hg (May 1, 5:00 PM)
Low75 °F (Apr 24, 2:00 AM)59% (Apr 26, 12:00 PM)29.80 "Hg (Apr 25, 3:00 PM)
Average82 °F76%29.90 "Hg
* Reported Apr 18 9:00 PM — May 3 9:00 PM, Recife, Weather by CustomWeather, © 2016

Note: Actual official high and low records may vary slightly from our data, if they occured in-between our weather recording intervals... More about our weather records

Advertising

Recife Weather History for the Previous 24 Hours

Scroll right to see more
 ConditionsComfort  
Time TempWeatherWind HumidityBarometerVisibility
9:00 PM
Tue, May 3
79 °FPassing clouds.6 mph79%29.98 "HgN/A
8:00 PM81 °FPassing clouds.7 mph74%29.95 "HgN/A
7:00 PM81 °FPassing clouds.9 mph74%29.92 "HgN/A
6:00 PM81 °FPassing clouds.10 mph74%29.92 "HgN/A
5:00 PM82 °FPassing clouds.14 mph70%29.92 "HgN/A
4:00 PM84 °FPassing clouds.14 mph66%29.89 "HgN/A
3:00 PM84 °FScattered clouds.13 mph70%29.89 "HgN/A
2:00 PM84 °FScattered clouds.13 mph66%29.89 "HgN/A
1:00 PM86 °FPassing clouds.13 mph62%29.92 "HgN/A
12:00 PM86 °FPassing clouds.15 mph62%29.95 "HgN/A
11:00 AM84 °FScattered clouds.15 mph70%29.95 "HgN/A
10:00 AM84 °FScattered clouds.16 mph66%29.98 "HgN/A
9:00 AM84 °FScattered clouds.16 mph66%29.98 "HgN/A
8:00 AM82 °FPassing clouds.14 mph70%29.95 "HgN/A
7:00 AM79 °FScattered clouds.7 mph84%29.95 "HgN/A
6:00 AM77 °FScattered clouds.6 mph83%29.95 "HgN/A
5:00 AM77 °FPassing clouds.8 mph83%29.92 "HgN/A
4:00 AM77 °FPassing clouds.12 mph83%29.92 "HgN/A
3:00 AM81 °FPassing clouds.10 mph74%29.92 "HgN/A
2:00 AM79 °FPassing clouds.14 mph79%29.92 "HgN/A
1:00 AM79 °FScattered showers. Partly cloudy.12 mph84%29.92 "HgN/A
12:00 AM81 °FPartly cloudy.7 mph79%29.95 "HgN/A
11:00 PM
Mon, May 2
81 °FPassing clouds.12 mph79%29.95 "HgN/A
10:00 PM82 °FPartly cloudy.10 mph79%29.95 "HgN/A
Weather by CustomWeather, © 2016

See weather overviewHow to use our weather pages